TimePDT,TemperatureF,Dew PointF,Humidity,Sea Level PressureIn,VisibilityMPH,Wind Direction,Wind SpeedMPH,Gust SpeedMPH,PrecipitationIn,Events,Conditions,WindDirDegrees,DateUTC
12:15 AM,46.4,44.6,93,29.97,10.0,ESE,12.7,-,N/A,,Overcast,120,2012-10-24 07:15:00
12:35 AM,46.4,44.6,93,29.97,10.0,ESE,13.8,-,N/A,,Mostly Cloudy,110,2012-10-24 07:35:00
12:55 AM,46.4,44.6,93,29.97,10.0,ESE,12.7,-,N/A,,Mostly Cloudy,120,2012-10-24 07:55:00
1:15 AM,46.4,44.6,93,29.97,10.0,ESE,11.5,-,N/A,,Scattered Clouds,120,2012-10-24 08:15:00
1:55 AM,46.4,44.6,93,29.98,10.0,ESE,12.7,-,N/A,,Overcast,120,2012-10-24 08:55:00
2:15 AM,46.4,44.6,93,29.98,10.0,ESE,11.5,-,N/A,,Overcast,120,2012-10-24 09:15:00
2:35 AM,46.4,44.6,93,29.99,10.0,ESE,13.8,-,N/A,,Scattered Clouds,120,2012-10-24 09:35:00
2:55 AM,46.4,44.6,93,29.99,10.0,ESE,11.5,-,N/A,,Clear,110,2012-10-24 09:55:00
3:15 AM,46.4,44.6,93,29.99,10.0,ESE,11.5,-,N/A,,Partly Cloudy,110,2012-10-24 10:15:00
3:35 AM,46.4,44.6,93,29.99,10.0,ESE,12.7,-,N/A,,Mostly Cloudy,110,2012-10-24 10:35:00
3:55 AM,46.4,44.6,93,29.99,10.0,ESE,12.7,18.4,N/A,,Mostly Cloudy,120,2012-10-24 10:55:00
4:15 AM,46.4,44.6,93,29.98,10.0,ESE,12.7,-,N/A,,Overcast,120,2012-10-24 11:15:00
4:35 AM,46.4,44.6,93,29.98,10.0,ESE,11.5,-,N/A,,Overcast,120,2012-10-24 11:35:00
5:15 AM,46.4,44.6,93,29.99,10.0,ESE,11.5,-,N/A,,Overcast,110,2012-10-24 12:15:00
5:35 AM,46.4,44.6,93,29.99,9.0,ESE,11.5,-,0.01,,Mostly Cloudy,110,2012-10-24 12:35:00
5:55 AM,46.4,44.6,93,30.00,10.0,ESE,10.4,-,0.02,,Overcast,110,2012-10-24 12:55:00
6:15 AM,46.4,46.4,100,30.01,6.0,SE,6.9,-,0.01,,Overcast,140,2012-10-24 13:15:00
6:35 AM,46.4,46.4,100,30.01,7.0,SE,10.4,-,0.03,,Overcast,130,2012-10-24 13:35:00
6:55 AM,46.4,46.4,100,30.01,10.0,SE,12.7,-,0.03,,Overcast,130,2012-10-24 13:55:00
7:15 AM,46.4,46.4,100,30.01,10.0,ESE,13.8,-,N/A,,Overcast,110,2012-10-24 14:15:00
7:35 AM,46.4,46.4,100,30.02,10.0,ESE,15.0,-,N/A,,Overcast,110,2012-10-24 14:35:00
7:55 AM,46.4,44.6,93,30.03,10.0,ESE,12.7,-,N/A,,Overcast,120,2012-10-24 14:55:00
8:15 AM,46.4,44.6,93,30.04,10.0,ESE,12.7,-,N/A,,Overcast,120,2012-10-24 15:15:00
8:35 AM,46.4,44.6,93,30.04,10.0,ESE,11.5,-,N/A,,Mostly Cloudy,120,2012-10-24 15:35:00
8:55 AM,46.4,44.6,93,30.05,10.0,ESE,13.8,-,N/A,,Mostly Cloudy,120,2012-10-24 15:55:00
9:15 AM,46.4,46.4,100,30.06,10.0,ESE,12.7,-,N/A,,Overcast,110,2012-10-24 16:15:00
9:35 AM,46.4,46.4,100,30.06,10.0,ESE,9.2,-,N/A,,Mostly Cloudy,110,2012-10-24 16:35:00
9:55 AM,48.2,46.4,93,30.07,10.0,ESE,11.5,-,N/A,,Mostly Cloudy,110,2012-10-24 16:55:00
10:15 AM,48.2,46.4,93,30.08,10.0,ESE,10.4,-,N/A,,Mostly Cloudy,110,2012-10-24 17:15:00
10:35 AM,50.0,46.4,87,30.08,10.0,ESE,9.2,-,N/A,,Mostly Cloudy,110,2012-10-24 17:35:00
10:55 AM,50.0,46.4,87,30.08,10.0,East,10.4,-,N/A,,Overcast,100,2012-10-24 17:55:00
11:15 AM,51.8,46.4,82,30.08,10.0,ESE,8.1,16.1,N/A,,Mostly Cloudy,110,2012-10-24 18:15:00
11:35 AM,53.6,46.4,77,30.09,10.0,SE,8.1,-,N/A,,Scattered Clouds,130,2012-10-24 18:35:00
11:55 AM,53.6,46.4,77,30.08,10.0,East,9.2,-,N/A,,Mostly Cloudy,100,2012-10-24 18:55:00
12:15 PM,53.6,46.4,77,30.09,10.0,ESE,9.2,-,N/A,,Mostly Cloudy,110,2012-10-24 19:15:00
12:35 PM,55.4,46.4,72,30.10,10.0,ESE,5.8,-,N/A,,Mostly Cloudy,110,2012-10-24 19:35:00
12:55 PM,53.6,46.4,77,30.10,10.0,Calm,Calm,-,N/A,,Scattered Clouds,0,2012-10-24 19:55:00
1:15 PM,55.4,48.2,77,30.10,10.0,ESE,5.8,-,N/A,,Mostly Cloudy,120,2012-10-24 20:15:00
1:35 PM,55.4,48.2,77,30.09,10.0,Calm,Calm,-,N/A,,Scattered Clouds,0,2012-10-24 20:35:00
1:55 PM,55.4,44.6,67,30.09,10.0,Calm,Calm,-,N/A,,Partly Cloudy,0,2012-10-24 20:55:00
2:15 PM,55.4,44.6,67,30.10,10.0,Calm,Calm,-,N/A,,Scattered Clouds,0,2012-10-24 21:15:00
2:35 PM,57.2,46.4,67,30.10,10.0,Calm,Calm,-,N/A,,Overcast,0,2012-10-24 21:35:00
2:55 PM,57.2,44.6,63,30.10,10.0,Calm,Calm,-,N/A,,Overcast,0,2012-10-24 21:55:00
3:15 PM,57.2,44.6,63,30.10,10.0,Calm,Calm,-,N/A,,Overcast,0,2012-10-24 22:15:00
3:35 PM,57.2,44.6,63,30.10,10.0,Calm,Calm,-,N/A,,Mostly Cloudy,0,2012-10-24 22:35:00
3:55 PM,57.2,41.0,55,30.10,10.0,Calm,Calm,-,N/A,,Mostly Cloudy,0,2012-10-24 22:55:00
4:15 PM,59.0,41.0,51,30.11,10.0,SW,4.6,-,N/A,,Overcast,220,2012-10-24 23:15:00
4:35 PM,57.2,41.0,55,30.11,10.0,SW,5.8,-,N/A,,Overcast,220,2012-10-24 23:35:00
4:55 PM,57.2,41.0,55,30.11,10.0,SSW,9.2,-,N/A,,Overcast,210,2012-10-24 23:55:00
5:35 PM,55.4,41.0,58,30.11,10.0,Calm,Calm,-,N/A,,Overcast,0,2012-10-25 00:35:00
6:15 PM,55.4,41.0,58,30.12,10.0,Calm,Calm,-,N/A,,Overcast,0,2012-10-25 01:15:00
6:35 PM,53.6,46.4,77,30.13,10.0,Calm,Calm,-,N/A,,Overcast,0,2012-10-25 01:35:00
6:55 PM,53.6,46.4,77,30.13,10.0,ESE,3.5,-,N/A,,Overcast,120,2012-10-25 01:55:00
7:15 PM,53.6,48.2,82,30.13,10.0,ESE,3.5,-,N/A,,Overcast,110,2012-10-25 02:15:00
7:35 PM,50.0,46.4,87,30.14,10.0,Calm,Calm,-,N/A,,Mostly Cloudy,0,2012-10-25 02:35:00
7:55 PM,50.0,48.2,94,30.15,10.0,ESE,5.8,-,N/A,,Mostly Cloudy,120,2012-10-25 02:55:00
8:15 PM,50.0,48.2,94,30.15,10.0,Calm,Calm,-,N/A,,Mostly Cloudy,0,2012-10-25 03:15:00
8:35 PM,50.0,48.2,94,30.16,10.0,Calm,Calm,-,N/A,,Overcast,0,2012-10-25 03:35:00
8:55 PM,50.0,46.4,87,30.16,10.0,Calm,Calm,-,N/A,,Mostly Cloudy,0,2012-10-25 03:55:00
9:15 PM,50.0,48.2,94,30.17,10.0,Calm,Calm,-,N/A,,Mostly Cloudy,0,2012-10-25 04:15:00
9:55 PM,48.2,48.2,100,30.17,10.0,Calm,Calm,-,N/A,,Overcast,0,2012-10-25 04:55:00
10:15 PM,48.2,48.2,100,30.18,10.0,Calm,Calm,-,N/A,,Overcast,0,2012-10-25 05:15:00
10:35 PM,48.2,48.2,100,30.19,10.0,Calm,Calm,-,N/A,,Overcast,0,2012-10-25 05:35:00
10:55 PM,48.2,48.2,100,30.20,10.0,Calm,Calm,-,N/A,,Mostly Cloudy,0,2012-10-25 05:55:00
11:15 PM,48.2,48.2,100,30.20,10.0,Calm,Calm,-,N/A,,Mostly Cloudy,0,2012-10-25 06:15:00
11:35 PM,48.2,48.2,100,30.21,10.0,Calm,Calm,-,N/A,,Scattered Clouds,0,2012-10-25 06:35:00
11:55 PM,48.2,48.2,100,30.21,10.0,Calm,Calm,-,N/A,,Mostly Cloudy,0,2012-10-25 06:55:00